TimeEDT,TemperatureF,Dew PointF,Humidity,Sea Level PressureIn,VisibilityMPH,Wind Direction,Wind SpeedMPH,Gust SpeedMPH,PrecipitationIn,Events,Conditions,WindDirDegrees,DateUTC
12:53 AM,54.0,52.0,93,29.95,10.0,SW,3.5,-,N/A,,Clear,230,2013-10-20 04:53:00
1:53 AM,54.0,52.0,93,29.97,10.0,WSW,4.6,-,N/A,,Clear,250,2013-10-20 05:53:00
2:53 AM,52.0,50.0,93,29.98,8.0,WNW,3.5,-,N/A,,Clear,300,2013-10-20 06:53:00
3:53 AM,51.1,50.0,96,29.98,4.0,Calm,Calm,-,N/A,,Clear,0,2013-10-20 07:53:00
4:22 AM,51.8,48.2,88,29.96,2.5,Calm,Calm,-,N/A,,Clear,0,2013-10-20 08:22:00
4:32 AM,51.8,48.2,88,29.96,4.0,Calm,Calm,-,N/A,,Clear,0,2013-10-20 08:32:00
4:34 AM,51.8,50.0,94,29.96,1.8,Calm,Calm,-,N/A,,Partly Cloudy,0,2013-10-20 08:34:00
4:36 AM,51.8,50.0,94,29.96,0.5,NNE,3.5,-,N/A,Fog,Fog,30,2013-10-20 08:36:00
4:47 AM,51.8,50.0,94,29.97,1.2,North,5.8,-,N/A,,Partly Cloudy,10,2013-10-20 08:47:00
4:49 AM,51.8,48.2,88,29.97,4.0,North,5.8,-,N/A,,Partly Cloudy,10,2013-10-20 08:49:00
4:53 AM,51.1,48.0,89,29.99,10.0,North,6.9,-,N/A,,Partly Cloudy,10,2013-10-20 08:53:00
5:53 AM,51.1,46.0,83,30.01,10.0,North,4.6,-,N/A,,Clear,10,2013-10-20 09:53:00
6:53 AM,50.0,45.0,83,30.04,10.0,NNE,8.1,-,N/A,,Clear,30,2013-10-20 10:53:00
7:53 AM,48.9,44.1,83,30.06,10.0,NE,10.4,-,N/A,,Clear,40,2013-10-20 11:53:00
8:53 AM,51.1,43.0,74,30.09,10.0,NNE,13.8,-,N/A,,Clear,30,2013-10-20 12:53:00
9:53 AM,54.0,42.1,64,30.11,10.0,NE,12.7,-,N/A,,Clear,40,2013-10-20 13:53:00
10:53 AM,57.0,39.0,51,30.12,10.0,NNE,11.5,-,N/A,,Clear,30,2013-10-20 14:53:00
11:53 AM,59.0,41.0,51,30.12,10.0,NNE,8.1,-,N/A,,Clear,30,2013-10-20 15:53:00
12:53 PM,62.1,39.0,43,30.11,10.0,NE,5.8,-,N/A,,Clear,50,2013-10-20 16:53:00
1:53 PM,64.0,39.9,41,30.08,10.0,NE,4.6,-,N/A,,Clear,50,2013-10-20 17:53:00
2:53 PM,64.9,39.0,39,30.06,10.0,Calm,Calm,-,N/A,,Clear,0,2013-10-20 18:53:00
3:53 PM,66.9,39.9,37,30.06,10.0,Variable,4.6,-,N/A,,Clear,0,2013-10-20 19:53:00
4:53 PM,66.0,39.0,37,30.06,10.0,Calm,Calm,-,N/A,,Clear,0,2013-10-20 20:53:00
5:53 PM,66.0,39.9,38,30.06,10.0,Calm,Calm,-,N/A,,Clear,0,2013-10-20 21:53:00
6:53 PM,57.9,43.0,58,30.08,10.0,ENE,3.5,-,N/A,,Clear,60,2013-10-20 22:53:00
7:53 PM,54.0,45.0,72,30.10,10.0,Calm,Calm,-,N/A,,Clear,0,2013-10-20 23:53:00
8:53 PM,52.0,45.0,77,30.12,10.0,East,3.5,-,N/A,,Clear,80,2013-10-21 00:53:00
9:53 PM,50.0,44.1,80,30.13,10.0,Calm,Calm,-,N/A,,Clear,0,2013-10-21 01:53:00
10:53 PM,50.0,44.1,80,30.13,10.0,Calm,Calm,-,N/A,,Clear,0,2013-10-21 02:53:00
11:53 PM,46.9,44.1,90,30.14,10.0,Calm,Calm,-,N/A,,Clear,0,2013-10-21 03:53:00